| time (UTC) | temp F | wind direction | speed MPH | gust MPH | rain 1hr in | rain 24hr in | rain mn in | humidity % | barometer mb |
| 20260510060016 | 45 | 315 | 1.0 | 4.0 | 0.00 | 0.00 | 0.00 | 51 | 1016.5 |
| 20260510053016 | 45 | 338 | 4.0 | 5.0 | 0.00 | 0.00 | 0.00 | 49 | 1016.4 |
| 20260510050016 | 46 | 338 | 3.0 | 5.0 | 0.00 | 0.00 | 0.00 | 49 | 1016.1 |
| 20260510043036 | 47 | 338 | 4.0 | 5.0 | 0.00 | 0.00 | 0.00 | 47 | 1016.1 |
| 20260510040018 | 47 | 338 | 4.0 | 6.0 | 0.00 | 0.00 | 0.00 | 46 | 1015.9 |
| 20260510033017 | 48 | 338 | 6.0 | 8.0 | 0.00 | 0.00 | 0.00 | 45 | 1015.7 |
| 20260510030016 | 49 | 338 | 7.0 | 10.0 | 0.00 | 0.00 | 0.00 | 43 | 1015.3 |
| 20260510023017 | 51 | 338 | 8.0 | 11.0 | 0.00 | 0.00 | 0.00 | 40 | 1014.6 |
| 20260510020017 | 53 | 338 | 12.0 | 21.0 | 0.00 | 0.00 | 0.00 | 36 | 1014.0 |
| 20260510013017 | 55 | 338 | 15.0 | 22.0 | 0.00 | 0.00 | 0.00 | 33 | 1013.6 |
| 20260510010017 | 57 | 338 | 16.0 | 23.0 | 0.00 | 0.00 | 0.00 | 31 | 1013.1 |
| 20260510003016 | 59 | 338 | 18.0 | 26.0 | 0.00 | 0.00 | 0.00 | 28 | 1012.8 |
| 20260510000037 | 59 | 338 | 17.0 | 25.0 | 0.00 | 0.00 | 0.00 | 28 | 1012.6 |
| 20260509233037 | 60 | 338 | 19.0 | 29.0 | 0.00 | 0.00 | 0.00 | 26 | 1012.2 |
| 20260509230016 | 61 | 338 | 21.0 | 32.0 | 0.00 | 0.00 | 0.00 | 24 | 1011.8 |
| 20260509223016 | 62 | 338 | 22.0 | 32.0 | 0.00 | 0.00 | 0.00 | 24 | 1011.3 |
| 20260509220037 | 61 | 338 | 21.0 | 31.0 | 0.00 | 0.00 | 0.00 | 24 | 1011.2 |
| 20260509213016 | 62 | 338 | 22.0 | 32.0 | 0.00 | 0.00 | 0.00 | 23 | 1011.0 |
| 20260509210016 | 62 | 338 | 23.0 | 33.0 | 0.00 | 0.00 | 0.00 | 24 | 1010.6 |
| 20260509203016 | 62 | 338 | 22.0 | 36.0 | 0.00 | 0.00 | 0.00 | 25 | 1010.4 |
| 20260509200016 | 62 | 338 | 22.0 | 35.0 | 0.00 | 0.00 | 0.00 | 28 | 1010.2 |
| 20260509193036 | 63 | 338 | 21.0 | 35.0 | 0.00 | 0.00 | 0.00 | 30 | 1009.9 |
| 20260509190036 | 62 | 338 | 21.0 | 34.0 | 0.00 | 0.00 | 0.00 | 31 | 1009.8 |
| 20260509183037 | 61 | 338 | 21.0 | 35.0 | 0.00 | 0.00 | 0.00 | 33 | 1009.7 |
| 20260509180038 | 61 | 338 | 21.0 | 35.0 | 0.00 | 0.00 | 0.00 | 32 | 1009.4 |
| 20260509173018 | 61 | 338 | 21.0 | 35.0 | 0.00 | 0.00 | 0.00 | 37 | 1009.1 |
| 20260509170038 | 59 | 338 | 21.0 | 33.0 | 0.00 | 0.00 | 0.00 | 38 | 1009.0 |
| 20260509163017 | 59 | 338 | 20.0 | 33.0 | 0.00 | 0.00 | 0.00 | 41 | 1008.8 |
| 20260509160017 | 57 | 338 | 21.0 | 33.0 | 0.00 | 0.00 | 0.00 | 46 | 1008.5 |
| 20260509153059 | 56 | 338 | 20.0 | 29.0 | 0.00 | 0.00 | 0.00 | 55 | 1008.2 |
| 20260509150018 | 56 | 338 | 19.0 | 29.0 | 0.00 | 0.00 | 0.00 | 60 | 1008.0 |
| 20260509143017 | 54 | 338 | 19.0 | 30.0 | 0.00 | 0.00 | 0.00 | 66 | 1007.6 |
| 20260509140017 | 54 | 338 | 22.0 | 29.0 | 0.00 | 0.00 | 0.00 | 72 | 1007.2 |
| 20260509133018 | 54 | 338 | 21.0 | 29.0 | 0.00 | 0.00 | 0.00 | 74 | 1006.5 |
| 20260509130017 | 54 | 315 | 19.0 | 26.0 | 0.00 | 0.00 | 0.00 | 77 | 1005.7 |
| 20260509123016 | 53 | 293 | 14.0 | 22.0 | 0.00 | 0.00 | 0.00 | 74 | 1005.5 |
| 20260509120017 | 51 | 293 | 4.0 | 13.0 | 0.00 | 0.00 | 0.00 | 71 | 1005.0 |
| 20260509113016 | 50 | 293 | 2.0 | 8.0 | 0.00 | 0.00 | 0.00 | 65 | 1004.5 |
| 20260509110017 | 51 | 338 | 5.0 | 11.0 | 0.00 | 0.00 | 0.00 | 63 | 1004.7 |
| 20260509103016 | 50 | 338 | 10.0 | 14.0 | 0.00 | 0.00 | 0.00 | 60 | 1004.3 |
| 20260509100016 | 50 | 315 | 8.0 | 15.0 | 0.00 | 0.00 | 0.00 | 57 | 1004.2 |
| 20260509093036 | 51 | 315 | 11.0 | 28.0 | 0.00 | 0.00 | 0.00 | 56 | 1003.4 |
| 20260509090017 | 46 | 225 | 5.0 | 8.0 | 0.00 | 0.00 | 0.00 | 63 | 1002.0 |
| 20260509083017 | 46 | 225 | 3.0 | 6.0 | 0.00 | 0.00 | 0.00 | 61 | 1001.8 |
| 20260509080016 | 47 | 225 | 4.0 | 7.0 | 0.00 | 0.00 | 0.00 | 59 | 1001.8 |
| 20260509073016 | 47 | 225 | 3.0 | 7.0 | 0.00 | 0.00 | 0.00 | 57 | 1001.9 |
| 20260509070037 | 48 | 248 | 3.0 | 5.0 | 0.00 | 0.00 | 0.00 | 56 | 1002.4 |
| 20260509063016 | 48 | 248 | 4.0 | 8.0 | 0.00 | 0.00 | 0.00 | 54 | 1002.9 |